Regional Weather Roundup
Issued by NWS

Home | Current Version | Previous Version | Text Only | Print | Product List | Glossary On
Versions: 1 2 3 4 5 6 7 8 9 10 11 12 13 14 15 16 17 18 19 20 21 22 23 24 25 26 27 28 29 30 31 32 33 34 35 36 37 38 39 40 41 42 43 44 45 46 47 48 49 50
000
ASUS45 KSLC 300810
RWRUT

UTAH REGIONAL WEATHER ROUNDUP
NATIONAL WEATHER SERVICE SALT LAKE CITY UT
100 AM MST FRI JAN 30 2015

UTZ001>011-023>025-300900-

NORTHERN UTAH

CITY           SKY/WX    TMP DP  RH WIND       PRES   REMARKS
BRIGHAM CITY   CLOUDY    39  34  82 CALM      30.25F
HILL AFB       CLOUDY    39  31  71 NE5       30.22F
LOGAN          CLOUDY    33  32  96 CALM      30.25F FOG
OGDEN          CLOUDY    38  34  85 CALM      30.23F
PROVO AIRPORT  CLOUDY    37  34  87 CALM      30.23F
SALT LAKE CITY CLOUDY    38  35  89 CALM      30.22F
VERNAL         CLOUDY    35  31  85 CALM      30.28F
WENDOVER       CLOUDY    37  30  75 CALM      30.23F
HEBER CITY     CLOUDY    36  32  87 CALM      30.23F
WEST JORDAN    CLOUDY    37  36  93 CALM      30.23F

$$

UTZ012>022-026-027-300900-

SOUTHERN/CENTRAL UTAH

CITY           SKY/WX    TMP DP  RH WIND       PRES   REMARKS
BLANDING       CLOUDY    42  33  70 CALM      30.34S
BRYCE CANYON   LGT SNOW  32  31  96 NE6       30.22F FOG     WCI  26
CEDAR CITY     MIX PCPN  37  35  92 W5        30.16F WCI  33
DELTA          CLOUDY    38  37  97 W5        30.20S WCI  35
HANKSVILLE     CLOUDY    41  37  87 CALM      30.27S
MILFORD        CLOUDY    40  37  89 N9        30.19F WCI  34
MOAB/CYNLANDS  CLOUDY    42  35  76 SW3       30.23F
PRICE          CLOUDY    37  34  89 NE5       30.26F WCI  33
ST GEORGE      CLOUDY    52  43  71 CALM      30.13F
KANAB          CLOUDY    41  37  87 N9        30.21F

$$

REGIONAL REPORTS     COLORADO/ARIZONA

CITY           SKY/WX    TMP DP  RH WIND       PRES   REMARKS
CRAIG, CO        N/A     29  27  92 CALM      30.30F
GRAND JUNCTION CLOUDY    39  32  76 E5        30.25F
RIFLE          CLOUDY    38  28  67 CALM      30.28F
MONTROSE       MOCLDY    35  28  75 SE6       30.29F WCI  30
CORTEZ         CLOUDY    44  33  65 CALM      30.27F
PAGE, AZ       NOT AVBL
GRAND CANYON   LGT RAIN  37  35  92 E8        30.15F WCI  31
KINGMAN        LGT RAIN  49  47  93 CALM      30.06F
FLAGSTAFF      LGT RAIN  38  36  92 E7        30.13F WCI  33

$$

REGIONAL REPORTS    NEVADA/IDAHO/WYOMING

CITY           SKY/WX    TMP DP  RH WIND       PRES   REMARKS
LAS VEGAS, NV  CLOUDY    57  43  59 S8        30.02F
ELY            CLOUDY    34  34 100 CALM      30.21S
ELKO           CLOUDY    39  32  76 CALM      30.20S
POCATELLO, ID  CLEAR     29  28  96 CALM      30.27F
BURLEY         MOCLDY    34  28  79 E6        30.25F WCI  29
EVANSTON, WY   CLOUDY    31  25  78 NE7       30.25F WCI  24
ROCK SPRINGS   CLOUDY    30  26  85 S3        30.25F
KEMMERER       CLOUDY    27  23  86 N8        30.26F WCI  18

$$



USA.gov is the U.S. government's official web portal to all federal, state and local government web resources and services.